FW4758 Weather Reports


Display with metric or nautical units.
time (UTC)temp
F
wind
direction
speed
MPH
gust
MPH
rain 1hr
in
rain 24hr
in
rain mn
in
humidity
%
barometer
mb
20260505101555 66 360 6.0 11.0 0.00 0.00 0.00 84 1002.4
20260505100050 67 360 6.0 13.0 0.00 0.00 0.00 84 1002.6
20260505094558 67 211 8.0 16.0 0.00 0.00 0.00 84 1002.6
20260505093053 67 201 6.0 14.0 0.00 0.00 0.00 84 1002.8
20260505091543 67 197 7.0 15.0 0.00 0.00 0.00 84 1002.8
20260505090043 67 360 9.0 20.0 0.00 0.00 0.00 84 1003.0
20260505084540 68 360 7.0 16.0 0.00 0.00 0.00 84 1003.1
20260505083045 68 360 10.0 17.0 0.00 0.00 0.00 84 1003.0
20260505081536 68 360 8.0 19.0 0.00 0.00 0.00 84 1002.9
20260505080041 69 170 12.0 19.0 0.00 0.00 0.00 84 1003.0
20260505074530 69 161 10.0 17.0 0.00 0.00 0.00 84 1003.4
20260505073027 69 360 7.0 12.0 0.00 0.00 0.00 83 1003.5
20260505071525 69 196 6.0 21.0 0.00 0.00 0.00 83 1003.7
20260505070026 70 360 8.0 15.0 0.00 0.00 0.00 83 1004.0
20260505064523 70 148 10.0 16.0 0.00 0.00 0.00 82 1004.1
20260505063020 70 157 8.0 19.0 0.00 0.00 0.00 82 1004.3
20260505061521 70 203 9.0 16.0 0.00 0.00 0.00 81 1004.3
20260505060015 71 182 12.0 23.0 0.00 0.00 0.00 80 1004.2
20260505054513 71 171 11.0 20.0 0.00 0.00 0.00 80 1004.1
20260505053014 71 195 11.0 25.0 0.00 0.00 0.00 79 1004.0
20260505051507 72 190 10.0 21.0 0.00 0.00 0.00 78 1004.2
20260505041502 73 167 10.0 19.0 0.00 0.00 0.00 76 1004.4
20260505040002 73 182 13.0 22.0 0.00 0.00 0.00 76 1004.5
20260505034501 73 360 11.0 22.0 0.00 0.00 0.00 76 1004.4
20260505033105 73 360 11.0 18.0 0.00 0.00 0.00 75 1004.3
20260505031559 74 133 9.0 18.0 0.00 0.00 0.00 75 1004.4
20260505030100 74 139 9.0 17.0 0.00 0.00 0.00 75 1004.6
20260505024559 73 144 8.0 14.0 0.00 0.00 0.00 75 1004.7
20260505023059 74 360 9.0 17.0 0.00 0.00 0.00 74 1004.5
20260505021602 74 360 10.0 20.0 0.00 0.00 0.00 74 1004.3
20260505020058 74 172 9.0 16.0 0.00 0.00 0.00 74 1004.3
20260505014559 74 169 9.0 13.0 0.00 0.00 0.00 74 1004.1
20260505013057 74 162 8.0 16.0 0.00 0.00 0.00 73 1004.3
20260505011609 74 179 6.0 15.0 0.00 0.00 0.00 72 1004.2
20260505010105 74 136 8.0 16.0 0.00 0.00 0.00 72 1004.1
20260505004554 75 148 8.0 15.0 0.00 0.00 0.00 72 1004.3
20260505003053 75 149 9.0 17.0 0.00 0.00 0.00 70 1004.4
20260505001554 76 162 8.0 16.0 0.00 0.00 0.00 70 1004.6
20260505000100 76 360 9.0 16.0 0.00 0.00 0.00 69 1004.7
20260504234602 76 200 10.0 17.0 0.00 0.00 0.00 68 1004.9
20260504233049 77 360 11.0 19.0 0.00 0.00 0.00 67 1004.9
20260504231550 78 154 9.0 17.0 0.00 0.00 0.00 67 1005.0
20260504230047 78 158 9.0 16.0 0.00 0.00 0.00 66 1005.1
20260504224545 77 157 10.0 19.0 0.00 0.00 0.00 65 1005.3
20260504223044 78 190 9.0 22.0 0.00 0.00 0.00 66 1005.4
20260504221546 78 185 11.0 19.0 0.00 0.00 0.00 64 1005.5
20260504220049 78 189 12.0 18.0 0.00 0.00 0.00 64 1005.5
20260504214542 79 159 12.0 20.0 0.00 0.00 0.00 63 1005.7
20260504213058 79 154 11.0 19.0 0.00 0.00 0.00 63 1005.9
20260504211542 79 153 12.0 20.0 0.00 0.00 0.00 62 1006.1
20260504210036 80 174 11.0 19.0 0.00 0.00 0.00 63 1006.3
20260504204541 79 153 12.0 21.0 0.00 0.00 0.00 62 1006.6
20260504203033 79 199 10.0 20.0 0.00 0.00 0.00 63 1006.9
20260504201528 79 182 13.0 21.0 0.00 0.00 0.00 61 1007.3
20260504200026 79 173 12.0 22.0 0.00 0.00 0.00 62 1007.7
20260504194523 79 187 10.0 20.0 0.00 0.00 0.00 64 1007.9
20260504193021 78 184 11.0 21.0 0.00 0.00 0.00 64 1008.3
20260504191520 78 175 12.0 17.0 0.00 0.00 0.00 65 1008.4
20260504190015 77 182 11.0 22.0 0.00 0.00 0.00 65 1008.5
20260504184513 77 193 11.0 22.0 0.00 0.00 0.00 65 1008.8
20260504183010 76 176 10.0 21.0 0.00 0.00 0.00 66 1009.0
20260504181511 76 180 12.0 18.0 0.00 0.00 0.00 65 1009.2
20260504180006 75 182 10.0 21.0 0.00 0.00 0.00 65 1009.4
20260504174503 75 182 11.0 23.0 0.00 0.00 0.00 66 1009.7
20260504173100 74 163 9.0 18.0 0.00 0.00 0.00 67 1009.8
20260504171558 74 171 8.0 22.0 0.00 0.00 0.00 68 1009.9